Regional Weather Roundup
Issued by NWS Sioux Falls, SD

Home | Current Version | Previous Version | Graphics & Text | Print | Product List | Glossary On
Versions: 1 2 3 4 5 6 7 8 9 10 11 12 13 14 15 16 17 18 19 20 21 22 23 24 25 26 27 28 29 30 31 32 33 34 35 36 37 38 39 40 41 42 43 44 45 46 47 48 49 50
000
ASUS43 KFSD 200610
RWRFSD

WEATHER ROUNDUP FOR SE SOUTH DAKOTA/SW MINNESOTA/NW IOWA
NATIONAL WEATHER SERVICE SIOUX FALLS SD
1200 AM CST MON FEB 20 2017

NOTE: "FAIR" INDICATES FEW OR NO CLOUDS BELOW 12,000 FEET WITH NO
SIGNIFICANT WEATHER AND OR OBSTRUCTIONS TO VISIBILITY.


SDZ038>040-050-052>070-200700-
SOUTHEAST SOUTH DAKOTA

CITY           SKY/WX    TMP DP  RH WIND       PRES   REMARKS
BROOKINGS      CLOUDY    51  47  86 S12       29.69F
CHAMBERLAIN    CLOUDY    60  49  68 S15G21    29.58R
6HR MIN TEMP:  54; 6HR MAX TEMP:  62;

HURON          CLOUDY    54  49  83 S14       29.60F
6HR MIN TEMP:  53; 6HR MAX TEMP:  59;

MADISON        FAIR      52  52 100 S18G24    29.69S
MITCHELL       CLOUDY    56  50  80 S18G25    29.64F
6HR MIN TEMP:  55; 6HR MAX TEMP:  62;

SIOUX FALLS    CLOUDY    55  51  86 S12       29.72F
6HR MIN TEMP:  55; 6HR MAX TEMP:  60;

WINNER         FAIR      61  48  62 S18       29.58S
YANKTON        CLOUDY    57  48  72 S14       29.71S
$$

MNZ071-072-080-081-089-090-097-098-200700-
SOUTHWEST MINNESOTA

CITY           SKY/WX    TMP DP  RH WIND       PRES   REMARKS
FAIRMONT       CLOUDY    51  45  79 S17       29.83S
JACKSON        CLOUDY    52  45  76 S15G23    29.83R
LUVERNE        CLOUDY    52  46  82 S12       29.76F
MARSHALL       CLOUDY    53  48  83 SE17      29.73F
6HR MIN TEMP:  53; 6HR MAX TEMP:  57;

MONTEVIDEO     CLOUDY    54  48  82 S12G18    29.74F
PIPESTONE      CLOUDY    54  46  76 S18       29.74S
REDWOOD FALLS  CLOUDY    52  46  80 S17       29.77S
TRACY          CLOUDY    54  49  81 S16G23    29.75S
WINDOM         CLOUDY    55  46  71 S15       29.80S
WORTHINGTON    CLOUDY    51  47  86 S18       29.78S
$$

IAZ001>003-012>014-020>022-031-032-NEZ013-014-SDZ071-200700-
NORTHWEST IOWA

CITY           SKY/WX    TMP DP  RH WIND       PRES   REMARKS
CHEROKEE       CLOUDY    54  51  88 S10       29.80F
DENISON        MOCLDY    55  52  88 S12G21    29.81F
ESTHERVILLE    PTCLDY    48  46  93 S16       29.83R
LE MARS        CLOUDY    55  52  88 S15       29.77F
SHELDON        CLOUDY    54  54 100 S18       29.78R
SIOUX CITY     CLOUDY    58  52  80 S14G26    29.78F
6HR MIN TEMP:  57; 6HR MAX TEMP:  63;

SPENCER        MOCLDY    51  46  83 S12       29.82R
6HR MIN TEMP:  51; 6HR MAX TEMP:  57;

STORM LAKE     CLOUDY    52  48  87 S12       29.83F
$$

ABBREVIATIONS USED IN REMARKS
   TC - TEMPERATURE IN CELSIUS
  WCI - WIND CHILL INDEX
   HX - HEAT INDEX
  VSB - VISIBILITY





USA.gov is the U.S. government's official web portal to all federal, state and local government web resources and services.